AirNav   Everest Fuels
 
 437 users online  

26R Jackson County Airport
Edna, Texas, USA

GOING TO EDNA?


FAA INFORMATION EFFECTIVE 21 MAY 2020

Location

FAA Identifier: 26R
Lat/Long: 29-00-03.5963N 096-34-55.0637W
29-00.059938N 096-34.917728W
29.0009990,-96.5819621
(estimated)
Elevation: 61.4 ft. / 19 m (estimated)
Variation: 03E (2020)
From city: 3 miles NE of EDNA, TX
Time zone: UTC -5 (UTC -6 during Standard Time)
Zip code: 77957

Airport Operations

Airport use: Open to the public
Activation date: 03/1967
Control tower: no
ARTCC: HOUSTON CENTER
FSS: MONTGOMERY COUNTY FLIGHT SERVICE STATION
FOR FP FILING CALL CXO FSS 1-800-833-5602
NOTAMs facility: CXO (NOTAM-D service available)
Attendance: UNATTENDED
Wind indicator: lighted
Segmented circle: yes
Lights: MIRL RWY 15/33 PRESET TO LOW. TO INCR INTST AND ACTIVATE - CTAF.
Beacon: white-green (lighted land airport)
Operates sunset to sunrise.

Airport Communications

CTAF/UNICOM: 122.8
WX ASOS at VCT (20 nm SW): 119.025 (361-578-9916)
  • APCH/DEP SVC PRVDD BY HOUSTON ARTCC (ZHU) ON 128.6/360.8 (PALACIOS RCAG).

Nearby radio navigation aids

VOR radial/distance  VOR name  Freq  Var
PSXr306/20.3PALACIOS VORTAC117.3008E
VCTr068/21.7VICTORIA VOR/DME109.0006E

 
NDB name  Hdg/Dist  Freq  Var  ID
WHARTON233/27.224503EARM .- .-. --

Airport Services

Fuel available: 100LL
FUEL AVBL 24 HRS WITH CREDIT CARD.
Parking: tiedowns
Airframe service: MAJOR
Powerplant service: MAJOR

Runway Information

Runway 15/33

Dimensions: 3393 x 70 ft. / 1034 x 21 m
Surface: asphalt, in fair condition
Weight bearing capacity: 
Single wheel: 12.5
Runway edge lights: medium intensity
RUNWAY 15  RUNWAY 33
Latitude: 29-00.301438N28-59.818510N
Longitude: 096-35.078683W096-34.756785W
Elevation: 61.0 ft.60.6 ft.
Traffic pattern: leftleft
Runway heading: 147 magnetic, 150 true327 magnetic, 330 true
Markings: nonprecision, in good conditionnonprecision, in good condition
Touchdown point: yes, no lightsyes, no lights
Obstructions: 30 ft. pline, 1560 ft. from runway, 45:1 slope to clearnone

Airport Ownership and Management from official FAA records

Ownership: Publicly-owned
Owner: JACKSON COUNTY
115 W. MAIN, RM 207
EDNA, TX 77957
Phone 361-782-2352
DENNIS KARL - COUNTY COMMISSIONER.
Manager: RICK MCCLURE
303 MAGNOLIA
VICTORIA, TX 77901
Phone 361-652-4163

Airport Operational Statistics

Aircraft based on the field: 14
Single engine airplanes: 13
Multi engine airplanes: 1
    
Aircraft operations: avg 21/day *
66% local general aviation
33% transient general aviation
1% military
* for 12-month period ending 04 May 2017

Additional Remarks

A104 HEAVY ITINERANT TRAFFIC ON WEEKENDS.
TO MONITOR AEROBATIC BOX - 123.3.
TAXIWAY HAS REFLECTORS ON PAVEMENT.
FOR CD CTC HOUSTON ARTCC AT 281-230-5622.

Instrument Procedures

NOTE: All procedures below are presented as PDF files. If you need a reader for these files, you should download the free Adobe Reader.

NOT FOR NAVIGATION. Please procure official charts for flight.
FAA instrument procedures published for use from 21 May 2020 at 0901Z to 18 June 2020 at 0900Z.

 
IAPs - Instrument Approach Procedures
RNAV (GPS)-A   download (145KB)
RNAV (GPS)-B   download (151KB)
NOTE: Special Take-Off Minimums/Departure Procedures apply   download (93KB)

Other nearby airports with instrument procedures:

KVCT - Victoria Regional Airport (20 nm SW)
KPKV - Calhoun County Airport (22 nm S)
KPSX - Palacios Municipal Airport (24 nm SE)
KARM - Wharton Regional Airport (27 nm NE)
T85 - Yoakum Municipal Airport (35 nm NW)
 
Loc | Ops | Rwys | IFR | FBO | Links
Com | Nav | Svcs | Stats | Notes
Area around 26R (Jackson County Airport)
 
Road maps at: MapQuest Bing Google
 
Aerial photo
WARNING: Photo may not be current or correct
Aerial photo of 26R (Jackson County Airport)
Do you have a better or more recent aerial photo of Jackson County Airport that you would like to share? If so, please send us your photo.

 
Sectional chart

 
Airport distance calculator
Flying to Jackson County Airport? Find the distance to fly.

From to 26R

Sunrise and sunset
Times for 05-Jun-2020
 Local
(UTC-5)
 Zulu
(UTC)
Morning civil twilight06:0111:01
Sunrise06:2811:28
Sunset20:2201:22
Evening civil twilight20:4901:49

Current date and time
Zulu (UTC)  05-Jun-2020 10:21:49
Local (UTC-5)  05-Jun-2020 05:21:49
 
METAR
KVCT 
20nm SW 
050951Z AUTO 00000KT 5SM BR CLR 23/22 A2990 RMK AO2 SLP124 T02330217
KPKV 
21nm S 
050410Z AUTO 00000KT 10SM CLR 25/24 A2991 RMK AO2 T02540235
KPSX 
24nm SE 
050953Z AUTO 00000KT 10SM FEW020 24/23 A2989 RMK AO2 SLP120 T02440228
KARM 
27nm NE 
050955Z AUTO 00000KT 5SM BR SCT003 BKN009 OVC013 22/21 A2991 RMK AO2 T02170213
KBYY 
38nm E 
050955Z AUTO 00000KT 10SM CLR 23/23 A2990 RMK AO2 T02370237
KELA 
38nm N 
050955Z AUTO 00000KT 5SM BR CLR 24/24 A2990 RMK AO2 T02380235
K66R 
39nm N 
050955Z AUTO 00000KT 4SM BR CLR 23/22 A2991 RMK AO2 T02250224
TAF
KVCT 
20nm SW 
050524Z 0506/0606 16004KT P6SM FEW010 FM050900 VRB02KT 5SM BR SCT007 TEMPO 0511/0514 2SM BR BKN007 FM051400 17005KT P6SM BKN012 FM051700 13008KT P6SM SCT035 FM052300 12006KT P6SM SKC
NOTAMs
Click for the latest NOTAMs
NOTAMs are issued by the DoD/FAA and will open in a separate window not controlled by AirNav.

 

 
 

FBO, Fuel Providers, and Aircraft Ground Support

  
 Business Name 
 
 Contact 
 
 Services / Description 
 
Fuel Prices
 
Comments
  
Jackson County Airport 361-652-4163
[web site]
[email]
Aviation fuel, Hangar leasing / sales

More info about Jackson County Airport
independent
100LL
SS $3.35 
 Updated 04-Jun-2020
 
   write
SS=Self service
Update Fuel Prices
 

Would you like to see your business listed on this page?

 If your business provides an interesting product or service to pilots, flight crews, aircraft, or users of the Jackson County Airport, you should consider listing it here.  To start the listing process, click on the button below
 
Add a business
 

Other Pages about Jackson County Airport

Jackson County Airport
 
Update a link
 
Copyright © AirNav, LLC. All rights reserved. Privacy Policy  Contact